Home   Weather   Lexington   Past weeks

Flag for USA Past Weather in Lexington, North Carolina, USA — Yesterday and Last 2 Weeks

Now
79 °F

Partly sunny.


Feels Like: 82 °F
Forecast: 66 / 80 °F
Wind: No wind

Location: Davidson County Airport

Current Time: Sep 25, 2016 at 3:17:47 PM

Latest Report: Sep 25, 2016 at 2:25 PM


Visibility: 10 mi

Pressure: 30.11 "Hg

Humidity: 72%

Dew Point: 70 °F

Location of LexingtonLocation

Past Weather in Lexington — Graph

°F

Lexington Temperature Yesterday

Maximum temperature yesterday: 91 °F (at 3:25 PM)
Minimum temperature yesterday: 62 °F (at 7:05 AM)
Average temperature yesterday: 74 °F

High & Low Weather Summary for the Past Weeks

 TemperatureHumidityPressure
High94 °F (Sep 10, 4:00 PM)100% (Sep 13, 2:00 AM)30.25 "Hg (Sep 13, 2:00 AM)
Low62 °F (Sep 24, 7:05 AM)36% (Sep 14, 4:00 PM)29.93 "Hg (Sep 19, 4:45 PM)
Average74 °F79%30.10 "Hg
* Reported Sep 10 2:00 PM — Sep 25 2:05 PM, Lexington, Weather by CustomWeather, © 2016

Note: Actual official high and low records may vary slightly from our data, if they occured in-between our weather recording intervals... More about our weather records

Advertising

Lexington Weather History for the Previous 24 Hours

Scroll right to see more
 ConditionsComfort  
Time TempWeatherWind HumidityBarometerVisibility
2:05 PM
Sun, Sep 25
80 °FScattered clouds.No wind70%30.11 "Hg10 mi
1:45 PM79 °FBroken clouds.No wind73%30.13 "Hg10 mi
1:25 PM78 °FBroken clouds.No wind75%30.13 "Hg10 mi
1:05 PM77 °FMostly cloudy.No wind77%30.14 "Hg10 mi
12:45 PM76 °FMostly cloudy.No wind80%30.15 "Hg7 mi
12:25 PM78 °FBroken clouds.No wind74%30.15 "Hg10 mi
12:05 PM78 °FBroken clouds.5 mph75%30.15 "Hg10 mi
11:45 AM78 °FCloudy.6 mph75%30.15 "Hg10 mi
11:25 AM77 °FMostly cloudy.3 mph77%30.16 "Hg10 mi
11:05 AM76 °FOvercast.No wind80%30.16 "Hg10 mi
10:45 AM75 °FMore clouds than sun.3 mph83%30.16 "Hg10 mi
10:25 AM74 °FMostly cloudy.3 mph85%30.16 "Hg10 mi
10:05 AM74 °FMostly cloudy.5 mph85%30.15 "Hg10 mi
9:45 AM73 °FMostly cloudy.3 mph89%30.15 "Hg10 mi
9:25 AM73 °FOvercast.5 mph91%30.15 "Hg7 mi
9:05 AM72 °FOvercast.5 mph94%30.15 "Hg7 mi
8:45 AM71 °FFog.3 mph96%30.15 "Hg5 mi
8:25 AM70 °FFog.No wind97%30.15 "Hg5 mi
8:05 AM70 °FFog.No wind98%30.14 "Hg5 mi
7:45 AM69 °FFog.No wind99%30.14 "Hg4 mi
7:25 AM69 °FFog.No wind100%30.13 "Hg3 mi
7:05 AM69 °FFog.No wind98%30.13 "Hg4 mi
6:45 AM69 °FFog.No wind98%30.12 "Hg5 mi
6:25 AM69 °FFog.No wind98%30.11 "Hg5 mi
6:05 AM69 °FFog.No wind97%30.11 "Hg5 mi
5:45 AM69 °FFog.3 mph97%30.11 "Hg5 mi
5:25 AM69 °FFog.3 mph97%30.11 "Hg5 mi
5:05 AM69 °FFog.5 mph97%30.10 "Hg5 mi
4:45 AM69 °FPassing clouds.3 mph98%30.10 "Hg7 mi
4:25 AM69 °FPassing clouds.No wind98%30.09 "Hg7 mi
4:05 AM69 °FClear.No wind96%30.09 "Hg10 mi
3:45 AM68 °FClear.No wind95%30.09 "Hg10 mi
3:25 AM68 °FClear.No wind96%30.09 "Hg10 mi
3:05 AM68 °FClear.No wind95%30.09 "Hg10 mi
2:45 AM68 °FClear.No wind97%30.09 "Hg10 mi
2:25 AM67 °FClear.3 mph99%30.09 "Hg7 mi
2:05 AM66 °FClear.No wind99%30.08 "Hg7 mi
1:45 AM66 °FFog.No wind99%30.08 "Hg5 mi
1:25 AM67 °FClear.No wind99%30.08 "Hg7 mi
1:05 AM67 °FClear.No wind99%30.08 "Hg10 mi
12:45 AM68 °FClear.No wind98%30.08 "Hg10 mi
12:25 AM68 °FClear.No wind97%30.07 "Hg10 mi
12:05 AM68 °FClear.No wind96%30.07 "Hg10 mi
11:45 PM
Sat, Sep 24
68 °FClear.No wind96%30.07 "Hg10 mi
11:25 PM69 °FClear.No wind93%30.07 "Hg10 mi
11:05 PM70 °FClear.No wind92%30.07 "Hg10 mi
10:45 PM70 °FClear.No wind90%30.07 "Hg10 mi
10:25 PM71 °FClear.No wind88%30.06 "Hg10 mi
10:05 PM71 °FClear.No wind88%30.06 "Hg10 mi
9:45 PM72 °FClear.No wind85%30.06 "Hg10 mi
9:25 PM73 °FClear.No wind81%30.06 "Hg10 mi
9:05 PM72 °FClear.No wind82%30.06 "Hg10 mi
8:45 PM74 °FClear.No wind79%30.05 "Hg10 mi
8:25 PM75 °FClear.No wind75%30.05 "Hg10 mi
8:05 PM75 °FClear.No wind74%30.04 "Hg10 mi
7:25 PM79 °FClear.No wind63%30.04 "Hg10 mi
7:05 PM80 °FSunny.No wind60%30.04 "Hg10 mi
6:45 PM83 °FSunny.No wind54%30.03 "Hg10 mi
6:25 PM83 °FSunny.No wind53%30.03 "Hg10 mi
6:05 PM87 °FSunny.No wind44%30.03 "Hg10 mi
5:45 PM89 °FSunny.No wind38%30.03 "Hg10 mi
5:25 PM90 °FSunny.No wind37%30.03 "Hg10 mi
5:05 PM90 °FSunny.No wind40%30.03 "Hg10 mi
4:25 PM88 °FPartly sunny.No wind46%30.03 "Hg10 mi
3:45 PM91 °FScattered clouds.No wind39%30.03 "Hg10 mi
3:25 PM91 °FSunny.No wind39%30.03 "Hg10 mi
3:05 PM90 °FSunny.No wind40%30.04 "Hg10 mi
Weather by CustomWeather, © 2016

See weather overviewHow to use our weather pages